Regional Weather Roundup
Issued by NWS

Home | Current Version | Previous Version | Text Only | Print | Product List | Glossary On
Versions: 1 2 3 4 5 6 7 8 9 10 11 12 13 14 15 16 17 18 19 20 21 22 23 24 25 26 27 28
000
ASUS45 KBOU 131210
RWRCO

WEATHER ROUNDUP FOR COLORADO
NATIONAL WEATHER SERVICE DENVER/BOULDER CO
500 AM MST WED DEC 13 2017

NOTE: "FAIR" INDICATES FEW OR NO CLOUDS BELOW 12000 FEET WITH NO
SIGNIFICANT WEATHER AND/OR OBSTRUCTIONS TO VISIBILITY.

COZ001>005-013-030-031-131300-
...NORTHWEST COLORADO...

CITY           SKY/WX    TMP DP  RH WIND       PRES   REMARKS
CRAIG          MOCLDY     8   4  83 W3        30.27S
HAYDEN         CLOUDY    22  13  68 E10       30.27S WCI  11
MEEKER         FAIR      16   8  71 N3        30.26F
RABBIT EARS PA FAIR      27   5  39 W10G23    30.27F WCI  17
STEAMBOAT SPGS CLOUDY    16  11  82 CALM      30.26F
WALDEN         MOCLDY    21  10  63 SE5       30.23F WCI  15
$$

COZ006>008-011-131300-
...WEST CENTRAL VALLEYS...

CITY           SKY/WX    TMP DP  RH WIND       PRES   REMARKS
GRAND JUNCTION FAIR      22   8  55 E6        30.26F WCI  14
MONTROSE       FAIR      22  10  60 S6        30.28F WCI  14
EAGLE          FAIR      11   7  84 CALM      30.33F
RIFLE          FAIR      16   8  71 S5        30.29F WCI   9
DELTA          FAIR      22   7  53 CALM      30.27F
NUCLA          FAIR      25   7  46 CALM      30.29F
$$

COZ017>023-064>068-131300-
...SOUTHWEST COLORADO...

CITY           SKY/WX    TMP DP  RH WIND       PRES   REMARKS
DURANGO        FAIR      11  -1  58 E5        30.23F WCI   3
CORTEZ         FAIR      12   3  67 NE6       30.25F WCI   3
PAGOSA SPRINGS FAIR      22   2  42 CALM      30.24F
TELLURIDE      FAIR      30   6  35 SE6       30.31F WCI  24
WOLF CREEK PAS FAIR      28  -8  20 NW7       30.39F WCI  21
$$

COZ009-010-012-014-032>034-037-058>063-131300-
...CENTRAL COLORADO...

CITY           SKY/WX    TMP DP  RH WIND       PRES   REMARKS
ASPEN          FAIR      17   8  67 S7        30.25F WCI   8
BUENA VISTA    FAIR      21   7  55 S5        30.22F WCI  15
COPPER MTN     NOT AVBL
BERTHOUD PASS  FAIR      19   9  63 NW35G48   30.26R WCI  -1
COTTONWOOD PAS FAIR      39  -4  16 NW9G20    30.25F
GUNNISON       FAIR       6   2  83 CALM      30.34F
KREMMLING      FAIR       7   1  78 CALM      30.31F
LEADVILLE      FAIR      26   0  32 NE8       30.26F WCI  18
MONARCH PASS   FAIR      27  -2  28 W17       30.43F WCI  14
SALIDA         FAIR      28   8  42 NW7       30.30F WCI  21
SUNLIGHT       FAIR      28   9  43 W7        30.36F WCI  21
WILKERSON PASS FAIR      30  -8  19 W6        30.30F WCI  24
$$

COZ069>075-131300-
...SAN LUIS VALLEY/SANGRE DE CRISTO MOUNTAINS...

CITY           SKY/WX    TMP DP  RH WIND       PRES   REMARKS
ALAMOSA        FAIR       6  -2  69 N5        30.25F WCI  -3
DEL NORTE      FAIR      28   4  36 W16       30.26S WCI  17
LA VETA PASS   FAIR      30   5  34 SW18G26     N/A  WCI  18
SAGUACHE       FAIR      28   7  40 NW13      30.26S WCI  18
$$

COZ035-036-038>040-131300-
...NORTHERN COLORADO FRONT RANGE...

CITY           SKY/WX    TMP DP  RH WIND       PRES   REMARKS
DENVER INTL AP FAIR      36   7  29 E10       30.11R
DMNS CITY PARK NOT AVBL
AURORA         MOCLDY    38   5  25 E6        30.11R
FRONT RANGE AP FAIR      35   8  31 E6        30.13R WCI  30
ERIE MUNI ARPT FAIR      39   6  24 CALM      30.15R
BOULDER MUN AP FAIR      50   5  16 N7        30.08R
CENTENNIAL     FAIR      36   7  29 E3        30.10R
BROOMFIELD     FAIR      50   3  14 N9        30.10R
FORT COLLINS   MOCLDY    47   7  19 N10       30.09R
LONGMONT       FAIR      40  13  33 S8        30.10R
$$

COZ041-046-047-076>085-087-088-131300-
...PIKES PEAK/PALMER DIVIDE AND SOUTHERN FOOTHILLS...

CITY           SKY/WX    TMP DP  RH WIND       PRES   REMARKS
COLO. SPRINGS  FAIR      43   3  19 N12       30.09S
A. F. ACADEMY  FAIR      32   1  26 N6        30.09S WCI  27
SCHRIEVER AFB  FAIR      50  -2  11 NW13      30.09R
CHEYENNE MTN   FAIR      48  -5  11 CALM      30.05F
ELLICOTT         N/A    N/A N/A N/A NE5       30.08R
FALCON         FAIR      42  -5  14 NW10      30.12R
FORT CARSON    FAIR      42   1  18 W6        30.06S
LIMON          FAIR      39   7  26 N16       30.10R
MONUMENT HILL  FAIR      32   3  29 W7        30.15R WCI  26
CANON CITY     FAIR      45  12  26 W13       30.10R
WALSENBURG     FAIR      48   9  20 W21G29    30.10S
TRINIDAD       FAIR      34  11  38 W15       30.08F WCI  24
$$

COZ042>045-048>051-090-091-131300-
...NORTHEAST COLORADO...

CITY           SKY/WX    TMP DP  RH WIND       PRES   REMARKS
GREELEY ARPT   FAIR      35  11  36 CALM      30.11R
AKRON          FAIR      44   8  23 MISG      30.07S
BURLINGTON     FAIR      40  11  30 NW14      30.05R
WRAY           FAIR      46   9  21 NW16G24   30.04R
YUMA           FAIR      41  10  28 NW10      30.05S
STERLING       FAIR      46  12  25 NW13      30.06S
HOLYOKE        FAIR      54  12  19 NW15G29   30.01S
FORT MORGAN    FAIR      46   5  19 N17       30.11R
$$

COZ086-089-092>099-131300-
...SOUTHEAST COLORADO...

CITY           SKY/WX    TMP DP  RH WIND       PRES   REMARKS
PUEBLO         FAIR      45   9  23 VRB3G23   30.05R
LA JUNTA       FAIR      30  13  49 VRB3      30.04R
LAMAR          FAIR      24  12  60 SW7       30.05R WCI  16
SPRINGFIELD      N/A     41  13  31 NW18      30.00R
$$




USA.gov is the U.S. government's official web portal to all federal, state and local government web resources and services.